Location: Finnegan
(51.1333°N, 112.0833°W)
Time: 13:44:24
(UTC+00:00)

Envisat - Pass Details

Date: 03 December 2021
Orbit: 764 x 766 km, 98.2° (Epoch: 28 January)

Event Time Altitude Azimuth Distance (km) Brightness Sun altitude
Rises 12:47:50 0° 13° (NNE) 3,248 6.3 -21.8°
Reaches altitude 10° 12:50:09 10° 13° (NNE) 2,317 5.5 -21.4°
Maximum altitude 12:55:16 84° 286° (WNW) 777 2.9 -20.6°
Drops below altitude 10° 13:00:21 10° 199° (SSW) 2,299 5.4 -19.8°
Sets 13:02:38 0° 199° (SSW) 3,220 6.2 -19.5°
